Powrót do katalogu

ONEWEB-0066

AktywnyŁącznośćPO
NORAD 45424·PAYLOAD·🇬🇧 United Kingdom

Wystrzelony Mar 21, 2020 z Baikonur Cosmodrome

Loading…

Następne Przeloty (najbliższe 24 godziny)

TLE

ŚwieżeSource: CelesTrak SupGP

Epoka: Sep 14, 2026, 15:57 UTC

1 45424C 20020A   26257.66508519  .00002154  00000+0  60851-2 0  2575
2 45424  87.8975   3.2793 0001887  98.5586   6.6907 13.11416505    10

Śledź ONEWEB-0066 w czasie rzeczywistym z AllMySat

Download on the App Store